Miscellaneous Local Product
Issued by NWS Hastings, NE

Home | Current Version | Previous Version | Graphics & Text | Print | Product List | Glossary On
Versions: 1 2 3 4 5 6 7 8 9 10 11 12 13 14 15 16 17 18 19 20 21 22 23 24 25 26 27 28 29 30 31 32 33 34 35 36 37 38 39 40 41 42 43 44 45 46 47 48 49 50
000
AXUS43 KGID 261502
MISGRI

GID CWA HOURLY WEATHER ROUNDUP
NATIONAL WEATHER SERVICE HASTINGS NE
900 AM CST FRI DEC 26 2014

NOTE: "FAIR" INDICATES FEW OR NO CLOUDS BELOW 12,000 FEET WITH NO
SIGNIFICANT WEATHER AND/OR OBSTRUCTIONS TO VISIBILITY.

...SOUTH CENTRAL NEBRASKA...

CITY           SKY/WX    TMP DP  RH WIND       PRES   REMARKS
GRAND ISLAND   CLOUDY    27  23  85 N16       30.01R WCI  15
HASTINGS       CLOUDY    27  23  85 N16G24    29.98R WCI  15
KEARNEY        CLOUDY    27  19  74 NW21G26   30.01R WCI  13
ORD            CLOUDY    26  20  77 N22G29    30.01S WCI  12
YORK           CLOUDY    28  27  93 N23G29    29.97R WCI  14
AURORA         CLOUDY    28  26  92 N20G26    30.00R WCI  15
LEXINGTON      CLOUDY    27  22  81 N14       30.02R WCI  16
HOLDREGE       CLOUDY    26  22  84 N16G22    29.99R WCI  14
HEBRON         CLOUDY    31  26  84 N12       29.99R WCI  21

...NEBRASKA PANHANDLE...

CITY           SKY/WX    TMP DP  RH WIND       PRES   REMARKS
CHADRON        CLOUDY    20  16  84 NE8       30.07S WCI  10
ALLIANCE       CLOUDY    16  14  92 N8        30.01R WCI   5
SCOTTSBLUFF    CLOUDY    17  14  88 W3        30.03R
SIDNEY         LGT SNOW  17  14  88 N10       29.98S FOG     WCI   5

...WESTERN AND NORTH CENTRAL NEBRASKA...

CITY           SKY/WX    TMP DP  RH WIND       PRES   REMARKS
VALENTINE      CLOUDY    22  19  89 N13       30.07R FOG     WCI  10
AINSWORTH      CLOUDY    22  21  93 N15       30.05R WCI   9
ONEILL         CLOUDY    26  24  95 N12       30.05R WCI  15
BROKEN BOW     CLOUDY    25  20  81 N14G29    30.02R WCI  13
IMPERIAL       LGT SNOW  23  18  81 N16       30.01R WCI  10
NORTH PLATTE   LGT SNOW  24  19  81 N16G22    30.03R WCI  11
MCCOOK         CLOUDY    26  20  77 N18       30.01R WCI  13

...EASTERN NEBRASKA...

CITY           SKY/WX    TMP DP  RH WIND       PRES   REMARKS
NORFOLK        CLOUDY    28  26  92 N20       30.00S FOG     WCI  15
SO SIOUX CITY  CLOUDY    31  27  85 N13       30.03R WCI  21
TEKAMAH        CLOUDY    33  29  85 N21       29.97S WCI  21
COLUMBUS       CLOUDY    28  21  74 N16       30.01R WCI  17
ALBION         CLOUDY    28  23  82 N15G24    30.01R WCI  16
OMAHA EPPLEY   CLOUDY    34  32  92 N16       29.98R FOG     WCI  24
OFFUTT AFB     CLOUDY    34  31  90 VRB7G17   29.96R WCI  28
MILLARD        CLOUDY    34  32  93 N8        29.97R FOG     WCI  27
LINCOLN        CLOUDY    32  28  85 N16       29.98S WCI  21
NEBRASKA CITY  CLOUDY    33  33  99 N9        29.95R FOG     WCI  25
BEATRICE       CLOUDY    32  29  90 N12       29.96R WCI  23
FALLS CITY     CLOUDY    34  31  88 N14       29.94R FOG     WCI  25

...NORTHERN KANSAS...

CITY           SKY/WX    TMP DP  RH WIND       PRES   REMARKS
GOODLAND       CLOUDY    23  21  92 N16       29.93F FOG     WCI  10
HILL CITY      CLOUDY    28  22  78 N14       30.01R WCI  17
NORTON         CLOUDY    28  19  69 N17       29.98R WCI  16
PHILLIPSBURG   CLOUDY    30  25  80 N15       30.00R WCI  19
BELOIT         CLOUDY    32  27  80 N14G20    29.99R WCI  22
HAYS           CLOUDY    28  19  69 N15       29.99R WCI  17
RUSSELL        CLOUDY    30  26  85 N16       29.97R WCI  19
CONCORDIA      CLOUDY    31  28  89 N14       29.96F WCI  21
SALINA         CLOUDY    35  30  82 N14       29.94S WCI  26
TOPEKA         CLOUDY    41  33  73 W5        29.93R



USA.gov is the U.S. government's official web portal to all federal, state and local government web resources and services.